Regional Weather Roundup
Issued by NWS

Home | Current Version | Previous Version | Graphics & Text | Print | Product List | Glossary Off
Versions: 1 2 3 4 5 6 7 8 9 10 11 12 13 14 15 16 17 18 19 20 21 22 23 24 25 26 27 28 29 30 31 32 33 34 35 36 37 38 39 40 41 42 43 44 45 46 47 48 49 50

000
ASUS43 KDTX 250101
RWRMI
MICHIGAN HOURLY REGIONAL WEATHER ROUNDUP
NATIONAL WEATHER SERVICE DETROIT/PONTIAC MI
900 PM EDT MON JUL 24 2017

NOTE: "FAIR" INDICATES FEW OR NO CLOUDS BELOW 12,000 FEET WITH NO
SIGNIFICANT WEATHER AND/OR OBSTRUCTION TO VISIBILITY.

MIZ047>049-052>055-059>063-066>070-074>076-081>083-250200-
SOUTHEAST LOWER MICHIGAN

CITY           SKY/WX    TMP DP  RH WIND       PRES   REMARKS
ADRIAN         CLEAR     67  53  61 NE6       30.07R
ALMA           CLEAR     68  57  68 E5        30.07R
ANN ARBOR      CLEAR     66  52  60 N5        30.06R
BAD AXE        CLEAR     63  56  79 N6        30.08R
CARO           CLEAR     64  52  66 NE5       30.07R
DETROIT CITY   CLEAR     68  52  56 N8        30.06R
DETROIT        PTCLDY    70  48  45 N12       30.06R
FLINT          CLEAR     67  52  58 NE6       30.08R
GROSSE ILE     CLEAR     70  51  50 N6        30.04R
HILLSDALE      MOCLDY    64  54  68 CALM      30.07R
HOWELL         CLEAR     67  55  64 CALM      30.07R

CITY           SKY/WX    TMP DP  RH WIND       PRES   REMARKS
JACKSON        CLEAR     69  52  54 E5        30.07R
LAMBERTVILLE   CLEAR     66  57  71 CALM      30.05R
LANSING        CLEAR     68  56  65 NE3       30.07R
LAPEER         FAIR      64  55  71 CALM      30.08R
MASON          CLEAR     67  57  71 CALM      30.07R
MONROE         CLEAR     66  55  66 CALM      30.04S
MT. CLEMENS    PTCLDY    65  55  69 N7        30.04R
PONTIAC        PTCLDY    67  53  61 N7        30.06R
PORT HOPE        N/A     65  57  75 CALM      30.06R
PORT HURON     CLEAR     64  55  72 N5        30.06R
TRI CITIES     CLEAR     67  58  72 SE5       30.08R
MIDLAND        FAIR      68  55  62 E5        30.07R
TROY           CLEAR     68  53  57 N5        30.08R
SAGINAW HB     CLEAR     64  52  63 E3        30.08R
$$
MIZ043>046-050>051-056>058-064>065-071>073-077>080-250200-
SOUTHWEST LOWER MICHIGAN

CITY           SKY/WX    TMP DP  RH WIND       PRES   REMARKS
BATTLE CREEK   CLEAR     72  55  55 NE3       30.08R
BENTON HARBOR  CLEAR     69  60  73 CALM      30.08R
BIG RAPIDS     CLEAR     69  56  64 CALM      30.07R
COLDWATER      CLEAR     69  56  62 CALM      30.07R
FREMONT        FAIR      70  55  59 NW7       30.06R
HOLLAND        CLEAR     69  58  67 NW6       30.08R
GRAND RAPIDS   PTCLDY    73  54  51 E3        30.06S
IONIA          FAIR      71  55  56 CALM      30.06R
KALAMAZOO      CLEAR     73  52  47 CALM      30.07R
LUDINGTON      CLOUDY    63  54  71 N5        30.08R
MARSHALL       CLEAR     68  57  66 CALM      30.07R
MOUNT PLEASANT CLEAR     70  56  62 E8        30.07R
MUSKEGON       PTCLDY    71  58  63 NW7       30.07R
SOUTH HAVEN    CLEAR     69  62  81 N6        30.08R
$$
MIZ016>042-250200-
NORTHERN LOWER MICHIGAN

CITY           SKY/WX    TMP DP  RH WIND       PRES   REMARKS
ALPENA         CLEAR     68  54  60 NW3       30.08R
BEAVER ISLAND  CLEAR     66  52  59 CALM      30.09S
BELLAIRE       CLEAR     67  45  43 CALM      30.08S
CADILLAC       CLEAR     68  53  57 N5        30.09R
CHARLEVOIX     CLEAR     67  55  63 CALM      30.12R
FRANKFORT      CLEAR     68  49  51 CALM      30.09R
GAYLORD        CLEAR     69  45  41 NE5       30.10R
GRAYLING       CLEAR     66  47  50 NE3       30.10R
HARBOR SPRINGS CLEAR     67  48  50 N5        30.08R
HOUGHTON LAKE  CLEAR     67  49  52 NE5       30.09R
MANISTEE       CLEAR     67  53  61 NW3       30.08R
OSCODA         CLEAR     66  53  63 N6        30.06S
PELLSTON       CLEAR     65  52  62 W5        30.09R
ROGERS CITY    CLEAR     67  51  55 CALM      30.08R
TRAVERSE CITY  PTCLDY    70  48  45 N6        30.08R
$$
MIZ007>008-015-250200-
EASTERN UPPER MICHIGAN

CITY           SKY/WX    TMP DP  RH WIND       PRES   REMARKS
KINROSS        CLEAR     62  52  69 N8        30.09R
MACKINAC ISLAN CLEAR     65  55  68 N6        30.08R
NEWBERRY       CLEAR     61  51  68 CALM      30.09S
S. S. MARIE    CLEAR     64  49  57 NW8       30.07R
MUNISING         N/A     65  59  81 CALM      30.09R
$$
MIZ004>006-011>014-085-250200-
CENTRAL UPPER MICHIGAN

CITY           SKY/WX    TMP DP  RH WIND       PRES   REMARKS
MANISTIQUE     CLEAR     64  61  88 SW3       30.08S
ESCANABA       CLEAR     69  59  70 CALM      30.08S
MENOMINEE      CLEAR     69  55  60 CALM      30.10R
SAWYER-GWINN   CLEAR     70  52  52 E7        30.10S
$$
MIZ001>003-009>011-084-250200-
WESTERN UPPER MICHIGAN

CITY           SKY/WX    TMP DP  RH WIND       PRES   REMARKS
IRON MOUNTAIN  CLEAR     73  54  51 CALM      30.08R
HOUGHTON       CLEAR     67  54  63 E7        30.07S
COPPER HARBOR    N/A     65  50  58 VRB3      30.07R
IRONWOOD       CLEAR     70  57  63 E3        30.08R
$$

ABBREVIATIONS USED IN REMARKS
   TC - TEMPERATURE IN CELSIUS
  WCI - WIND CHILL INDEX
   HX - HEAT INDEX
  VSB - VISIBILITY





USA.gov is the U.S. government's official web portal to all federal, state and local government web resources and services.